Back to catalog

SL-19 DEB

AliveUNKNOWN
NORAD 23490·DEBRIS·🇷🇺 Russia

Launched Dec 26, 1994 from Baikonur Cosmodrome

Loading…

Next Passes (next 24 hours)

TLE

FreshSource: Space-Track

Epoch: Sep 13, 2026, 22:48 UTC

1 23490U 94085N   26256.95030479 -.00000041  00000-0  80526-5 0  9994
2 23490  64.8238  83.2474 0134145 346.3755 167.6892 11.20509342297756

Track SL-19 DEB in real time with AllMySat

Download on the App Store